Time,TemperatureF,DewpointF,PressureIn,WindDirection,WindDirectionDegrees,WindSpeedMPH,WindSpeedGustMPH,Humidity,HourlyPrecipIn,Conditions,Clouds,dailyrainin,SoftwareType,DateUTC
2013-04-25 00:03:00,58.0,51.0,-100.00,SSW,205,8.0,15.0,76,-99.99,,,-99.99,,2013-04-25 04:03:00,
2013-04-25 00:13:00,58.0,51.0,-100.00,SW,220,9.0,18.0,76,-99.99,,,-99.99,,2013-04-25 04:13:00,
2013-04-25 00:23:00,58.0,51.0,-100.00,SW,220,9.0,18.0,76,-99.99,,,-99.99,,2013-04-25 04:23:00,
2013-04-25 00:33:00,58.0,51.0,-100.00,SW,230,8.0,15.0,77,-99.99,,,-99.99,,2013-04-25 04:33:00,
2013-04-25 00:43:00,58.0,51.0,-100.00,SSW,200,9.0,17.0,78,-99.99,,,-99.99,,2013-04-25 04:43:00,
2013-04-25 00:52:00,58.0,51.0,-100.00,SSW,200,9.0,17.0,78,-99.99,,,-99.99,,2013-04-25 04:52:00,
2013-04-25 01:03:00,58.0,52.0,-100.00,SSW,205,9.0,15.0,79,-99.99,,,-99.99,,2013-04-25 05:03:00,
2013-04-25 01:12:00,58.0,52.0,-100.00,WSW,250,7.0,14.0,80,-99.99,,,-99.99,,2013-04-25 05:12:00,
2013-04-25 01:22:00,58.0,52.0,-100.00,WSW,250,7.0,14.0,80,-99.99,,,-99.99,,2013-04-25 05:22:00,
2013-04-25 01:32:00,58.0,52.0,-100.00,WSW,240,6.0,12.0,81,-99.99,,,-99.99,,2013-04-25 05:32:00,
2013-04-25 01:42:00,58.0,52.0,-100.00,West,260,6.0,11.0,81,-99.99,,,-99.99,,2013-04-25 05:42:00,
2013-04-25 01:52:00,58.0,52.0,-100.00,West,260,6.0,11.0,81,-99.99,,,-99.99,,2013-04-25 05:52:00,
2013-04-25 02:12:00,58.0,49.0,-100.00,WNW,285,6.0,18.0,70,-99.99,,,-99.99,,2013-04-25 06:12:00,
2013-04-25 02:22:00,58.0,49.0,-100.00,WNW,285,6.0,18.0,70,-99.99,,,-99.99,,2013-04-25 06:22:00,
2013-04-25 02:32:00,58.0,43.0,-100.00,West,280,14.0,27.0,58,-99.99,,,-99.99,,2013-04-25 06:32:00,
2013-04-25 02:42:00,57.0,39.0,-100.00,West,280,9.0,19.0,51,-99.99,,,-99.99,,2013-04-25 06:42:00,
2013-04-25 02:52:00,57.0,39.0,-100.00,West,280,9.0,19.0,51,-99.99,,,-99.99,,2013-04-25 06:52:00,
2013-04-25 03:12:00,55.0,37.0,-100.00,WNW,285,12.0,22.0,51,-99.99,,,-99.99,,2013-04-25 07:12:00,
2013-04-25 03:22:00,55.0,37.0,-100.00,WNW,285,12.0,22.0,51,-99.99,,,-99.99,,2013-04-25 07:22:00,
2013-04-25 03:32:00,54.0,38.0,-100.00,WNW,285,11.0,22.0,53,-99.99,,,-99.99,,2013-04-25 07:32:00,
2013-04-25 03:42:00,54.0,38.0,-100.00,WNW,285,11.0,24.0,54,-99.99,,,-99.99,,2013-04-25 07:42:00,
2013-04-25 03:52:00,54.0,38.0,-100.00,WNW,285,11.0,24.0,54,-99.99,,,-99.99,,2013-04-25 07:52:00,
2013-04-25 04:02:00,53.0,38.0,-100.00,WNW,285,10.0,22.0,55,-99.99,,,-99.99,,2013-04-25 08:02:00,
2013-04-25 04:11:00,53.0,37.0,-100.00,WNW,285,10.0,22.0,55,-99.99,,,-99.99,,2013-04-25 08:11:00,
2013-04-25 04:22:00,53.0,37.0,-100.00,WNW,285,10.0,22.0,55,-99.99,,,-99.99,,2013-04-25 08:22:00,
2013-04-25 04:32:00,52.0,35.0,-100.00,NW,315,8.0,25.0,52,-99.99,,,-99.99,,2013-04-25 08:32:00,
2013-04-25 04:42:00,49.0,28.0,-100.00,NW,310,12.0,28.0,44,-99.99,,,-99.99,,2013-04-25 08:42:00,
2013-04-25 04:52:00,49.0,28.0,-100.00,NW,310,12.0,28.0,44,-99.99,,,-99.99,,2013-04-25 08:52:00,
2013-04-25 05:01:00,49.0,27.0,-100.00,NW,310,13.0,27.0,43,-99.99,,,-99.99,,2013-04-25 09:01:00,
2013-04-25 05:11:00,48.0,27.0,-100.00,WNW,300,7.0,23.0,43,-99.99,,,-99.99,,2013-04-25 09:11:00,
2013-04-25 05:21:00,48.0,27.0,-100.00,WNW,300,7.0,23.0,43,-99.99,,,-99.99,,2013-04-25 09:21:00,
2013-04-25 05:33:00,48.0,27.0,-100.00,NW,305,14.0,21.0,45,-99.99,,,-99.99,,2013-04-25 09:33:00,
2013-04-25 05:42:00,47.0,27.0,-100.00,NW,320,10.0,22.0,45,-99.99,,,-99.99,,2013-04-25 09:42:00,
2013-04-25 05:52:00,47.0,27.0,-100.00,NW,320,10.0,22.0,45,-99.99,,,-99.99,,2013-04-25 09:52:00,
2013-04-25 06:03:00,47.0,27.0,-100.00,NW,320,8.0,22.0,45,-99.99,,,-99.99,,2013-04-25 10:03:00,
2013-04-25 06:12:00,46.0,26.0,-100.00,NW,315,8.0,23.0,45,-99.99,,,-99.99,,2013-04-25 10:12:00,
2013-04-25 06:22:00,46.0,26.0,-100.00,NW,315,8.0,23.0,45,-99.99,,,-99.99,,2013-04-25 10:22:00,
2013-04-25 06:33:00,46.0,26.0,-100.00,NW,320,9.0,19.0,46,-99.99,,,-99.99,,2013-04-25 10:33:00,
2013-04-25 06:42:00,45.0,26.0,-100.00,NW,315,9.0,18.0,47,-99.99,,,-99.99,,2013-04-25 10:42:00,
2013-04-25 06:52:00,45.0,26.0,-100.00,NW,315,9.0,18.0,47,-99.99,,,-99.99,,2013-04-25 10:52:00,
2013-04-25 07:02:00,45.0,27.0,-100.00,NW,320,7.0,19.0,49,-99.99,,,-99.99,,2013-04-25 11:02:00,
2013-04-25 07:12:00,44.0,27.0,-100.00,NW,310,11.0,23.0,50,-99.99,,,-99.99,,2013-04-25 11:12:00,
2013-04-25 07:22:00,44.0,27.0,-100.00,NW,310,11.0,23.0,50,-99.99,,,-99.99,,2013-04-25 11:22:00,
2013-04-25 07:32:00,44.0,27.0,-100.00,NW,315,11.0,19.0,50,-99.99,,,-99.99,,2013-04-25 11:32:00,
2013-04-25 07:42:00,44.0,27.0,-100.00,NW,305,10.0,20.0,50,-99.99,,,-99.99,,2013-04-25 11:42:00,
2013-04-25 07:51:00,44.0,27.0,-100.00,NW,305,10.0,20.0,50,-99.99,,,-99.99,,2013-04-25 11:51:00,
2013-04-25 08:01:00,44.0,27.0,-100.00,NW,320,7.0,21.0,51,-99.99,,,-99.99,,2013-04-25 12:01:00,
2013-04-25 08:12:00,45.0,27.0,-100.00,NW,310,12.0,24.0,49,-99.99,,,-99.99,,2013-04-25 12:12:00,
2013-04-25 08:22:00,45.0,27.0,-100.00,NW,310,12.0,24.0,49,-99.99,,,-99.99,,2013-04-25 12:22:00,
2013-04-25 08:32:00,45.0,25.0,-100.00,NNW,330,8.0,22.0,45,-99.99,,,-99.99,,2013-04-25 12:32:00,
2013-04-25 08:42:00,45.0,24.0,-100.00,NNW,335,12.0,21.0,43,-99.99,,,-99.99,,2013-04-25 12:42:00,
2013-04-25 08:51:00,45.0,24.0,-100.00,NNW,335,12.0,21.0,43,-99.99,,,-99.99,,2013-04-25 12:51:00,
2013-04-25 09:02:00,46.0,24.0,-100.00,WNW,285,9.0,19.0,42,-99.99,,,-99.99,,2013-04-25 13:02:00,
2013-04-25 09:11:00,46.0,23.0,-100.00,NW,305,10.0,20.0,40,-99.99,,,-99.99,,2013-04-25 13:11:00,
2013-04-25 09:21:00,46.0,23.0,-100.00,NW,305,10.0,20.0,40,-99.99,,,-99.99,,2013-04-25 13:21:00,
2013-04-25 09:32:00,47.0,24.0,-100.00,WNW,285,9.0,17.0,39,-99.99,,,-99.99,,2013-04-25 13:32:00,
2013-04-25 09:42:00,47.0,22.0,-100.00,NW,320,12.0,23.0,37,-99.99,,,-99.99,,2013-04-25 13:42:00,
2013-04-25 09:52:00,47.0,22.0,-100.00,NW,320,12.0,23.0,37,-99.99,,,-99.99,,2013-04-25 13:52:00,
2013-04-25 10:02:00,49.0,23.0,-100.00,NW,305,9.0,20.0,36,-99.99,,,-99.99,,2013-04-25 14:02:00,
2013-04-25 10:11:00,49.0,23.0,-100.00,WNW,295,12.0,20.0,35,-99.99,,,-99.99,,2013-04-25 14:11:00,
2013-04-25 10:22:00,49.0,23.0,-100.00,WNW,295,12.0,20.0,35,-99.99,,,-99.99,,2013-04-25 14:22:00,
2013-04-25 10:32:00,50.0,23.0,-100.00,NW,320,8.0,17.0,34,-99.99,,,-99.99,,2013-04-25 14:32:00,
2013-04-25 10:42:00,51.0,23.0,-100.00,NNW,330,8.0,19.0,33,-99.99,,,-99.99,,2013-04-25 14:42:00,
2013-04-25 10:51:00,51.0,23.0,-100.00,NNW,330,8.0,19.0,33,-99.99,,,-99.99,,2013-04-25 14:51:00,
2013-04-25 11:11:00,53.0,22.0,-100.00,North,10,8.0,20.0,29,-99.99,,,-99.99,,2013-04-25 15:11:00,
2013-04-25 11:21:00,53.0,22.0,-100.00,North,10,8.0,20.0,29,-99.99,,,-99.99,,2013-04-25 15:21:00,
2013-04-25 11:33:00,53.0,21.0,-100.00,NW,320,7.0,20.0,28,-99.99,,,-99.99,,2013-04-25 15:33:00,
2013-04-25 11:42:00,54.0,21.0,-100.00,NW,315,8.0,15.0,27,-99.99,,,-99.99,,2013-04-25 15:42:00,
2013-04-25 11:53:00,54.0,21.0,-100.00,NW,315,8.0,15.0,27,-99.99,,,-99.99,,2013-04-25 15:53:00,
2013-04-25 12:13:00,55.0,21.0,-100.00,West,270,9.0,15.0,26,-99.99,,,-99.99,,2013-04-25 16:13:00,
2013-04-25 12:24:00,55.0,21.0,-100.00,West,270,9.0,15.0,26,-99.99,,,-99.99,,2013-04-25 16:24:00,
2013-04-25 12:33:00,54.0,19.0,-100.00,North,0,6.0,17.0,25,-99.99,,,-99.99,,2013-04-25 16:33:00,
2013-04-25 12:43:00,56.0,21.0,-100.00,North,10,8.0,13.0,25,-99.99,,,-99.99,,2013-04-25 16:43:00,
2013-04-25 12:52:00,56.0,21.0,-100.00,North,10,8.0,13.0,25,-99.99,,,-99.99,,2013-04-25 16:52:00,
2013-04-25 13:02:00,57.0,20.0,-100.00,West,270,6.0,14.0,24,-99.99,,,-99.99,,2013-04-25 17:02:00,
2013-04-25 13:12:00,57.0,20.0,-100.00,West,270,6.0,14.0,24,-99.99,,,-99.99,,2013-04-25 17:12:00,
2013-04-25 14:32:00,61.0,18.0,-100.00,WNW,290,5.0,15.0,19,-99.99,,,-99.99,,2013-04-25 18:32:00,
2013-04-25 14:43:00,62.0,18.0,-100.00,West,265,6.0,14.0,18,-99.99,,,-99.99,,2013-04-25 18:43:00,
2013-04-25 14:52:00,62.0,18.0,-100.00,West,265,6.0,14.0,18,-99.99,,,-99.99,,2013-04-25 18:52:00,
2013-04-25 15:12:00,62.0,17.0,-100.00,WNW,295,5.0,15.0,17,-99.99,,,-99.99,,2013-04-25 19:12:00,
2013-04-25 15:21:00,62.0,17.0,-100.00,WNW,295,5.0,15.0,17,-99.99,,,-99.99,,2013-04-25 19:21:00,
2013-04-25 15:32:00,63.0,16.0,-100.00,WSW,255,7.0,15.0,16,-99.99,,,-99.99,,2013-04-25 19:32:00,
2013-04-25 15:42:00,63.0,16.0,-100.00,NW,315,7.0,13.0,16,-99.99,,,-99.99,,2013-04-25 19:42:00,
2013-04-25 15:52:00,63.0,16.0,-100.00,NW,315,7.0,13.0,16,-99.99,,,-99.99,,2013-04-25 19:52:00,
2013-04-25 16:02:00,63.0,16.0,-100.00,WNW,285,7.0,11.0,16,-99.99,,,-99.99,,2013-04-25 20:02:00,
2013-04-25 16:11:00,63.0,15.0,-100.00,NNW,345,4.0,13.0,15,-99.99,,,-99.99,,2013-04-25 20:11:00,
2013-04-25 16:22:00,63.0,15.0,-100.00,NNW,345,4.0,13.0,15,-99.99,,,-99.99,,2013-04-25 20:22:00,
2013-04-25 16:32:00,64.0,16.0,-100.00,WSW,255,6.0,14.0,15,-99.99,,,-99.99,,2013-04-25 20:32:00,
2013-04-25 16:43:00,64.0,14.0,-100.00,NW,310,4.0,10.0,14,-99.99,,,-99.99,,2013-04-25 20:43:00,
2013-04-25 16:52:00,64.0,14.0,-100.00,NW,310,4.0,10.0,14,-99.99,,,-99.99,,2013-04-25 20:52:00,
2013-04-25 17:01:00,65.0,15.0,-100.00,West,280,6.0,13.0,14,-99.99,,,-99.99,,2013-04-25 21:01:00,
2013-04-25 17:11:00,64.0,14.0,-100.00,West,275,3.0,13.0,14,-99.99,,,-99.99,,2013-04-25 21:11:00,
2013-04-25 17:22:00,64.0,14.0,-100.00,West,275,3.0,13.0,14,-99.99,,,-99.99,,2013-04-25 21:22:00,
2013-04-25 17:33:00,65.0,15.0,-100.00,NW,305,6.0,13.0,14,-99.99,,,-99.99,,2013-04-25 21:33:00,
2013-04-25 17:42:00,65.0,15.0,-100.00,WSW,255,4.0,9.0,14,-99.99,,,-99.99,,2013-04-25 21:42:00,
2013-04-25 17:52:00,65.0,15.0,-100.00,WSW,255,4.0,9.0,14,-99.99,,,-99.99,,2013-04-25 21:52:00,
2013-04-25 18:03:00,66.0,15.0,-100.00,NW,320,6.0,12.0,14,-99.99,,,-99.99,,2013-04-25 22:03:00,
2013-04-25 18:12:00,64.0,14.0,-100.00,WNW,285,4.0,11.0,14,-99.99,,,-99.99,,2013-04-25 22:12:00,
2013-04-25 18:22:00,64.0,14.0,-100.00,WNW,285,4.0,11.0,14,-99.99,,,-99.99,,2013-04-25 22:22:00,
2013-04-25 18:33:00,65.0,13.0,-100.00,SW,220,2.0,6.0,13,-99.99,,,-99.99,,2013-04-25 22:33:00,
2013-04-25 18:42:00,65.0,13.0,-100.00,South,190,4.0,11.0,13,-99.99,,,-99.99,,2013-04-25 22:42:00,
2013-04-25 18:52:00,65.0,13.0,-100.00,South,190,4.0,11.0,13,-99.99,,,-99.99,,2013-04-25 22:52:00,
2013-04-25 19:12:00,63.0,12.0,-100.00,West,260,4.0,7.0,13,-99.99,,,-99.99,,2013-04-25 23:12:00,
2013-04-25 19:22:00,63.0,12.0,-100.00,West,260,4.0,7.0,13,-99.99,,,-99.99,,2013-04-25 23:22:00,
2013-04-25 19:32:00,62.0,12.0,-100.00,South,170,2.0,3.0,14,-99.99,,,-99.99,,2013-04-25 23:32:00,
2013-04-25 19:42:00,62.0,12.0,-100.00,SW,230,5.0,12.0,14,-99.99,,,-99.99,,2013-04-25 23:42:00,
2013-04-25 19:52:00,62.0,12.0,-100.00,SW,230,5.0,12.0,14,-99.99,,,-99.99,,2013-04-25 23:52:00,
2013-04-25 20:01:00,62.0,13.0,-100.00,West,275,4.0,6.0,15,-99.99,,,-99.99,,2013-04-26 00:01:00,
2013-04-25 20:11:00,60.0,14.0,-100.00,WSW,255,3.0,5.0,16,-99.99,,,-99.99,,2013-04-26 00:11:00,
2013-04-25 20:22:00,60.0,14.0,-100.00,WSW,255,3.0,5.0,16,-99.99,,,-99.99,,2013-04-26 00:22:00,
2013-04-25 20:32:00,59.0,14.0,-100.00,WSW,255,5.0,8.0,17,-99.99,,,-99.99,,2013-04-26 00:32:00,
2013-04-25 20:42:00,57.0,15.0,-100.00,West,275,4.0,7.0,19,-99.99,,,-99.99,,2013-04-26 00:42:00,
2013-04-25 20:51:00,57.0,15.0,-100.00,West,275,4.0,7.0,19,-99.99,,,-99.99,,2013-04-26 00:51:00,
2013-04-25 21:01:00,56.0,17.0,-100.00,WSW,245,3.0,7.0,21,-99.99,,,-99.99,,2013-04-26 01:01:00,
2013-04-25 21:11:00,56.0,17.0,-100.00,WSW,255,4.0,9.0,22,-99.99,,,-99.99,,2013-04-26 01:11:00,
2013-04-25 21:21:00,56.0,17.0,-100.00,WSW,255,4.0,9.0,22,-99.99,,,-99.99,,2013-04-26 01:21:00,
2013-04-25 21:32:00,55.0,18.0,-100.00,WSW,255,3.0,7.0,23,-99.99,,,-99.99,,2013-04-26 01:32:00,
2013-04-25 21:42:00,54.0,19.0,-100.00,West,260,4.0,6.0,25,-99.99,,,-99.99,,2013-04-26 01:42:00,
2013-04-25 21:52:00,54.0,19.0,-100.00,West,260,4.0,6.0,25,-99.99,,,-99.99,,2013-04-26 01:52:00,
2013-04-25 22:02:00,53.0,18.0,-100.00,WSW,255,3.0,6.0,25,-99.99,,,-99.99,,2013-04-26 02:02:00,
2013-04-25 22:12:00,53.0,19.0,-100.00,WSW,250,3.0,6.0,26,-99.99,,,-99.99,,2013-04-26 02:12:00,
2013-04-25 22:21:00,53.0,19.0,-100.00,WSW,250,3.0,6.0,26,-99.99,,,-99.99,,2013-04-26 02:21:00,
2013-04-25 22:32:00,52.0,19.0,-100.00,WSW,250,4.0,7.0,27,-99.99,,,-99.99,,2013-04-26 02:32:00,
2013-04-25 22:42:00,51.0,19.0,-100.00,WSW,255,4.0,8.0,28,-99.99,,,-99.99,,2013-04-26 02:42:00,
2013-04-25 22:51:00,51.0,19.0,-100.00,WSW,255,4.0,8.0,28,-99.99,,,-99.99,,2013-04-26 02:51:00,
2013-04-25 23:01:00,51.0,19.0,-100.00,West,260,5.0,9.0,28,-99.99,,,-99.99,,2013-04-26 03:01:00,
2013-04-25 23:11:00,51.0,20.0,-100.00,West,265,4.0,7.0,29,-99.99,,,-99.99,,2013-04-26 03:11:00,
2013-04-25 23:22:00,51.0,20.0,-100.00,West,265,4.0,7.0,29,-99.99,,,-99.99,,2013-04-26 03:22:00,
2013-04-25 23:33:00,51.0,20.0,-100.00,West,270,5.0,7.0,30,-99.99,,,-99.99,,2013-04-26 03:33:00,
2013-04-25 23:43:00,50.0,20.0,-100.00,West,270,5.0,9.0,30,-99.99,,,-99.99,,2013-04-26 03:43:00,
2013-04-25 23:53:00,50.0,20.0,-100.00,West,270,5.0,9.0,30,-99.99,,,-99.99,,2013-04-26 03:53:00,